Hourly Weather Roundup
Issued by NWS Central Illinois

Home | Current Version | Previous Version | Text Only | Print | Product List | Glossary On
Versions: 1 2 3 4 5 6 7 8 9 10 11 12 13 14 15 16 17 18 19 20 21 22 23 24 25 26 27 28 29 30 31 32 33 34 35 36 37 38 39 40 41 42 43 44 45 46 47 48 49 50
000
NZUS43 KILX 251410
HWRILX

AREA WEATHER ROUNDUP
NATIONAL WEATHER SERVICE, LINCOLN IL
800 AM CST SUN JAN 25 2015


CITY           SKY/WX    TMP DP  RH WIND       PRES   REMARKS
BLOOMINGTON    LGT RAIN  33  33 100 NE13      29.64S FOG     WCI  24
CHAMPAIGN      LGT RAIN  35  32  88 NE7       29.62S WCI  29
DECATUR        LGT RAIN  41  38  89 NW9       29.60S
FLORA          DRIZZLE   40  35  80 S9        29.63F WCI  34
GALESBURG      LGT RAIN  34  33  98 NE14      29.64R WCI  24
JACKSONVILLE   LGT RAIN  39  38  94 E3        29.59R
LACON          LGT SNOW  33  32  95 E12G20    29.66S WCI  24
LAWRENCEVILLE  CLOUDY    39  34  82 S9        29.65S WCI  33
LITCHFIELD     CLOUDY    39  37  94 SE3       29.59S
$$


CITY           SKY/WX    TMP DP  RH WIND       PRES   REMARKS
LINCOLN        RAIN      36  34  94 NE3       29.62S
MACOMB         LGT RAIN  37  37 100 NE10      29.63R WCI  30
MATTOON        LGT RAIN  36  34  92 S3        29.60S
MT CARMEL AP   CLOUDY    43  34  70 CALM      29.65S
OLNEY-NOBLE AP LGT RAIN  37  32  81 CALM      29.64S
PARIS          LGT RAIN  36  34  92 CALM      29.63S
PEORIA         LGT RAIN  36  33  89 NE13      29.63R FOG     WCI  27
PONTIAC        LGT RAIN  34  34  98 NE20      29.67S WCI  23
RANTOUL        LGT RAIN  36  34  93 NE6       29.63S WCI  31
ROBINSON       CLOUDY    38  33  82 E6        29.64F WCI  34
SPRINGFIELD    LGT RAIN  39  39 100 CALM      29.60S
TAYLORVILLE    LGT RAIN  37  36  93 CALM      29.60S
$$

...REGIONAL REPORTS...


CITY           SKY/WX    TMP DP  RH WIND       PRES   REMARKS
CHICAGO O`HARE LGTSLEET  32  30  92 NE17      29.74R FOG     WCI  21
KANKAKEE       LGT RAIN  34  33  97 NE10      29.69S WCI  26
MOLINE         LGT SNOW  33  30  88 NE17      29.68R VSB 3/4 WCI  22
MOUNT VERNON   CLOUDY    39  34  81 S7        29.64S WCI  34
PITTSFIELD     DRIZZLE   42  40  93 CALM      29.58S
QUINCY         LGT RAIN  38  36  92 NE7       29.57S FOG     WCI  33
ROCKFORD       LGT SNOW  29  25  85 NE22G29   29.77R FOG     WCI  15
$$


CITY           SKY/WX    TMP DP  RH WIND       PRES   REMARKS
BURLINGTON     LGT RAIN  37  37 100 NE14      29.61R FOG     WCI  28
CEDAR RAPIDS   LGT SNOW  32  32 100 NE18      29.70R VSB 1   WCI  20
DES MOINES     LGT SNOW  35  32  88 N16       29.70R VSB 1   WCI  25
KIRKSVILLE     CLOUDY    41  41 100 NW7       29.57R FOG
OTTUMWA        LGT RAIN  37  37 100 NE13      29.62R WCI  29
ST LOUIS       CLOUDY    46  42  86 CALM      29.58F
$$


CITY           SKY/WX    TMP DP  RH WIND       PRES   REMARKS
TERRE HAUTE    CLOUDY    36  31  82 SE5       29.64F WCI  32
EVANSVILLE     CLOUDY    43  32  65 S8        29.68F
INDIANAPOLIS   LGT RAIN  33  30  88 E7        29.67R WCI  27
LAFAYETTE      CLOUDY    34  32  92 E6        29.67F WCI  29
MADISON        FLURRIES  23  19  85 NE14      29.84R WCI  11
MILWAUKEE      FLURRIES  26  17  68 NE22G29   29.84R WCI  12
$$





USA.gov is the U.S. government's official web portal to all federal, state and local government web resources and services.